This demonstration page uses our WeatherBlox Daily Observations layout. Learn more.

Left ArrowRight Arrow

39.95238, -75.16362

Hourly Observations for June 27, 2022

Temp ( °F °C ) Dew Point ( °F °C ) Humidity (%) Winds ( mph kmh ) Pressure ( in mb ) Visibility ( mi km ) Precip ( " mm )
12:54 am 00:54 Mostly Cloudy 76 24.4 64 17.8 67 67 S 10 17 30.02 1017 10 16 0.00 0.00
1:54 am 01:54 Mostly Cloudy 75 23.9 65 18.3 71 71 SSW 8 13 30.01 1016 10 16 0.00 0.00
2:54 am 02:54 Cloudy 75 23.9 66 18.9 74 74 SSW 9 15 30.00 1016 10 16 0.00 0.00
3:54 am 03:54 Mostly Cloudy 75 23.9 67 19.4 76 76 SSW 9 15 29.97 1015 10 16 0.00 0.00
4:54 am 04:54 Mostly Cloudy 75 23.9 68 20 79 79 SSW 10 17 29.96 1014 10 16 0.00 0.00
5:54 am 05:54 Mostly Cloudy 75 23.9 68 20 79 79 SSW 9 15 29.96 1015 10 16 0.00 0.00
6:54 am 06:54 Mostly Cloudy 76 24.4 69 20.6 79 79 SSW 10 17 29.96 1015 10 16 0.00 0.00
7:54 am 07:54 Mostly Cloudy 77 25 69 20.6 77 77 SSW 12 19 29.96 1015 10 16 0.00 0.00
8:54 am 08:54 Cloudy 78 25.6 68 20 71 71 SW 17 28 29.97 1015 10 16 0.00 0.00
9:54 am 09:54 Cloudy 80 26.7 69 20.6 69 69 SW 14 22 29.96 1015 10 16 0.00 0.00
10:54 am 10:54 Cloudy 81 27.2 70 21.1 69 69 SW 13 20 29.96 1015 10 16 0.00 0.00
11:22 am 11:22 Cloudy 81 27.2 70 21.1 69 69 SW 13 20 29.96 1014 10 16 0.00 0.00
11:54 am 11:54 Cloudy 81 27.2 70 21.1 69 69 SW 10 17 29.96 1015 10 16 0.00 0.00
12:54 pm 12:54 Cloudy 81 27.2 70 21.1 69 69 WSW 10 17 29.96 1014 10 16 0.00 0.00
1:11 pm 13:11 Cloudy with Light Rain 79 26.1 72 22.2 79 79 WNW 8 13 29.96 1014 5 8 0.03 0.76
1:13 pm 13:13 Cloudy with Rain 79 26.1 72 22.2 79 79 W 8 13 29.96 1014 3 5 0.04 1.02
1:26 pm 13:26 Cloudy with Light Rain 78 25.6 73 22.8 85 85 SW 7 11 29.96 1014 2 3 0.11 2.79
1:31 pm 13:31 Cloudy with Heavy Rain 77 25 73 22.8 88 88 WSW 7 11 29.96 1014 1 2 0.13 3.30
1:54 pm 13:54 Cloudy with Rain 76 24.4 73 22.8 91 91 SW 9 15 29.95 1014 2 3 0.38 9.65
1:59 pm 13:59 Cloudy with Light Rain 76 24.4 73 22.8 91 91 SW 12 19 29.95 1014 4 6 0.01 0.25
2:02 pm 14:02 Cloudy with Thunderstorms 76 24.4 73 22.8 91 91 SW 8 13 29.95 1014 4 6 0.01 0.25
2:09 pm 14:09 Cloudy with Thunderstorms 77 25 73 22.8 88 88 WSW 8 13 29.95 1014 5 8 0.01 0.25
2:29 pm 14:29 Cloudy with Light Rain 77 25 73 22.8 88 88 SSW 5 7 29.95 1014 6 10 0.01 0.25
2:54 pm 14:54 Cloudy with Light Rain 77 25 73 22.8 88 88 WSW 8 13 29.95 1014 6 10 0.07 1.78
3:06 pm 15:06 Cloudy with Light Rain 76 24.4 72 22.2 88 88 W 7 11 29.94 1014 7 11 0.04 1.02
3:31 pm 15:31 Cloudy 78 25.6 73 22.8 85 85 W 8 13 29.93 1013 10 16 0.05 1.27
3:54 pm 15:54 Mostly Cloudy 79 26.1 73 22.8 82 82 W 8 13 29.92 1013 10 16 0.05 1.27
4:21 pm 16:21 Cloudy with Light Rain 79 26.1 73 22.8 82 82 W 7 11 29.92 1013 10 16 0.00 0.00
4:54 pm 16:54 Cloudy 79 26.1 73 22.8 82 82 W 5 7 29.93 1013 10 16 0.00 0.00
5:54 pm 17:54 Cloudy with Light Rain 79 26.1 73 22.8 82 82 SW 7 11 29.94 1014 10 16 0.00 0.00
6:54 pm 18:54 Cloudy 79 26.1 73 22.8 82 82 WNW 3 6 29.95 1014 10 16 0.00 0.00
7:54 pm 19:54 Mostly Cloudy 74 23.3 67 19.4 79 79 Calm 29.98 1015 10 16 0.00 0.00
8:54 pm 20:54 Mostly Cloudy 73 22.8 68 20 84 84 Calm 30.00 1016 10 16 0.00 0.00
9:54 pm 21:54 Mostly Cloudy 72 22.2 68 20 87 87 Calm 30.01 1016 10 16 0.00 0.00
10:54 pm 22:54 Partly Cloudy 73 22.8 68 20 84 84 Calm 30.01 1016 10 16 0.00 0.00
11:54 pm 23:54 Mostly Clear 73 22.8 67 19.4 81 81 W 7 11 30.02 1017 10 16 0.00 0.00

Powered by AerisWeather